• In Deutschland
  • Länderverzeichnis
  • Für 7 Tage
  • Wassertemperatur
  • Satellitenkarten
  • Wetterkarte
  • Widgets
  • user-avatar
    Anmelden

    Stündliche Wetter Heidelberg

    Heute, 14 Dezember, Donnerstag

    Zeit Temperatur Niederschläge Wind Luftdruck Luftfeuchtigkeit
    00:00 +4°C° 0,9 mm 8 m/S 727 mmHg 83%
    01:00 +4°C° 0 mm 6 m/S 726 mmHg 83%
    02:00 +4°C° 0,5 mm 6 m/S 726 mmHg 84%
    03:00 +5°C° 0,5 mm 5 m/S 726 mmHg 84%
    04:00 +5°C° 0,5 mm 5 m/S 726 mmHg 85%
    05:00 +3°C° 0,4 mm 6 m/S 727 mmHg 79%
    06:00 +2°C° 0,4 mm 8 m/S 728 mmHg 73%
    07:00 +2°C° 0 mm 6 m/S 729 mmHg 66%
    08:00 +2°C° 0 mm 6 m/S 729 mmHg 68%
    09:00 +2°C° 0 mm 6 m/S 730 mmHg 69%
    10:00 +2°C° 0 mm 7 m/S 731 mmHg 71%
    11:00 +3°C° 0,1 mm 7 m/S 731 mmHg 70%
    12:00 +3°C° 0,1 mm 7 m/S 731 mmHg 69%
    13:00 +4°C° 0,1 mm 7 m/S 730 mmHg 69%
    14:00 +4°C° 0,1 mm 7 m/S 730 mmHg 70%
    15:00 +4°C° 0,1 mm 7 m/S 730 mmHg 71%
    16:00 +4°C° 0,1 mm 6 m/S 729 mmHg 72%
    17:00 +3°C° 0 mm 6 m/S 729 mmHg 74%
    18:00 +3°C° 0 mm 5 m/S 728 mmHg 77%
    19:00 +4°C° 0 mm 4 m/S 727 mmHg 80%
    20:00 +4°C° 0,4 mm 4 m/S 727 mmHg 82%
    21:00 +4°C° 0,4 mm 4 m/S 726 mmHg 84%
    22:00 +4°C° 0,4 mm 4 m/S 726 mmHg 86%
    23:00 +4°C° 0,6 mm 3 m/S 726 mmHg 87%

    Morgen, 15 Dezember, Freitag

    Zeit Temperatur Niederschläge Wind Luftdruck Luftfeuchtigkeit
    00:00 +3°C° 0,6 mm 3 m/S 725 mmHg 88%
    01:00 +3°C° 0,6 mm 3 m/S 725 mmHg 89%
    02:00 +3°C° 0,4 mm 4 m/S 726 mmHg 87%
    03:00 +3°C° 0,4 mm 4 m/S 726 mmHg 84%
    04:00 +2°C° 0,4 mm 5 m/S 727 mmHg 81%
    05:00 +1°C° 0,1 mm 5 m/S 727 mmHg 82%
    06:00 +1°C° 0,1 mm 5 m/S 728 mmHg 83%
    07:00 +1°C° 0,1 mm 4 m/S 729 mmHg 84%
    08:00 +1°C° 0,2 mm 5 m/S 729 mmHg 82%
    09:00 +1°C° 0,2 mm 5 m/S 729 mmHg 81%
    10:00 +1°C° 0,2 mm 5 m/S 730 mmHg 80%
    11:00 +2°C° 0,3 mm 5 m/S 730 mmHg 79%
    12:00 +2°C° 0,3 mm 5 m/S 730 mmHg 77%
    13:00 +3°C° 0,3 mm 6 m/S 730 mmHg 76%
    14:00 +2°C° 0,1 mm 5 m/S 730 mmHg 78%
    15:00 +3°C° 0,1 mm 4 m/S 730 mmHg 80%
    16:00 +3°C° 0,1 mm 3 m/S 731 mmHg 81%
    17:00 +2°C° 0,1 mm 3 m/S 731 mmHg 84%
    18:00 +3°C° 0,1 mm 2 m/S 731 mmHg 87%
    19:00 +2°C° 0,1 mm 2 m/S 731 mmHg 90%
    20:00 +3°C° 0 mm 1 m/S 732 mmHg 91%
    21:00 +3°C° 0 mm 1 m/S 732 mmHg 91%
    22:00 +2°C° 0 mm 1 m/S 732 mmHg 92%
    23:00 +2°C° 0 mm 1 m/S 733 mmHg 92%

    übermorgen, 16 Dezember, Samstag

    Zeit Temperatur Niederschläge Wind Luftdruck Luftfeuchtigkeit
    00:00 +2°C° 0 mm 1 m/S 733 mmHg 92%
    01:00 +2°C° 0 mm 1 m/S 733 mmHg 93%
    02:00 +2°C° 0 mm 1 m/S 734 mmHg 93%
    03:00 +1°C° 0 mm 1 m/S 734 mmHg 93%
    04:00 +1°C° 0 mm 1 m/S 735 mmHg 93%
    05:00 +1°C° 0 mm 1 m/S 735 mmHg 93%
    06:00 +1°C° 0 mm 1 m/S 736 mmHg 93%
    07:00 +1°C° 0 mm 1 m/S 736 mmHg 93%
    08:00 +1°C° 0,1 mm 2 m/S 737 mmHg 91%
    09:00 +1°C° 0,1 mm 2 m/S 738 mmHg 90%
    10:00 +2°C° 0,1 mm 2 m/S 738 mmHg 88%
    11:00 +2°C° 0 mm 2 m/S 739 mmHg 86%
    12:00 +2°C° 0 mm 3 m/S 739 mmHg 83%
    13:00 +2°C° 0 mm 3 m/S 739 mmHg 81%
    14:00 +2°C° 0,1 mm 3 m/S 740 mmHg 82%
    15:00 +2°C° 0,1 mm 3 m/S 740 mmHg 82%
    16:00 +3°C° 0,1 mm 2 m/S 741 mmHg 83%
    17:00 +2°C° 0 mm 2 m/S 741 mmHg 84%
    18:00 +2°C° 0 mm 2 m/S 742 mmHg 86%
    19:00 +1°C° 0 mm 2 m/S 743 mmHg 87%
    20:00 +1°C° 0 mm 2 m/S 743 mmHg 88%
    21:00 +1°C° 0 mm 2 m/S 744 mmHg 88%
    22:00 -1°C° 0 mm 3 m/S 744 mmHg 89%
    23:00 -1°C° 0 mm 3 m/S 745 mmHg 89%

    17 Dezember, Sonntag

    Zeit Temperatur Niederschläge Wind Luftdruck Luftfeuchtigkeit
    00:00 -1°C° 0 mm 3 m/S 745 mmHg 90%
    01:00 -1°C° 0 mm 3 m/S 746 mmHg 90%
    02:00 -1°C° 0 mm 3 m/S 746 mmHg 91%
    03:00 -1°C° 0 mm 3 m/S 746 mmHg 91%
    04:00 -1°C° 0 mm 3 m/S 747 mmHg 91%
    05:00 -1°C° 0 mm 3 m/S 747 mmHg 91%
    06:00 -1°C° 0 mm 3 m/S 748 mmHg 91%
    07:00 -1°C° 0 mm 3 m/S 748 mmHg 91%
    08:00 -1°C° 0 mm 3 m/S 749 mmHg 89%
    09:00 -1°C° 0 mm 3 m/S 749 mmHg 88%
    10:00 0°C° 0 mm 3 m/S 750 mmHg 87%
    11:00 -1°C° 0,1 mm 4 m/S 750 mmHg 85%
    12:00 0°C° 0,1 mm 4 m/S 750 mmHg 83%
    13:00 0°C° 0,1 mm 4 m/S 751 mmHg 81%
    14:00 0°C° 0,1 mm 4 m/S 751 mmHg 82%
    15:00 +1°C° 0,1 mm 3 m/S 751 mmHg 83%
    16:00 +1°C° 0,1 mm 3 m/S 751 mmHg 84%
    17:00 +1°C° 0,1 mm 3 m/S 752 mmHg 84%
    18:00 0°C° 0,1 mm 4 m/S 752 mmHg 85%
    19:00 0°C° 0,1 mm 4 m/S 752 mmHg 86%
    20:00 -1°C° 0 mm 4 m/S 752 mmHg 86%
    21:00 -1°C° 0 mm 4 m/S 753 mmHg 87%
    22:00 -1°C° 0 mm 4 m/S 753 mmHg 88%
    23:00 -1°C° 0 mm 4 m/S 753 mmHg 87%

    18 Dezember, Montag

    Zeit Temperatur Niederschläge Wind Luftdruck Luftfeuchtigkeit
    00:00 -1°C° 0 mm 4 m/S 753 mmHg 87%
    01:00 -1°C° 0 mm 4 m/S 752 mmHg 86%
    02:00 -1°C° 0,1 mm 5 m/S 752 mmHg 86%
    03:00 -1°C° 0,1 mm 5 m/S 751 mmHg 86%
    04:00 -1°C° 0,1 mm 6 m/S 751 mmHg 86%
    05:00 -1°C° 0,7 mm 6 m/S 750 mmHg 87%
    06:00 0°C° 0,7 mm 7 m/S 749 mmHg 87%
    07:00 0°C° 0,7 mm 7 m/S 749 mmHg 87%
    08:00 +1°C° 1,3 mm 8 m/S 749 mmHg 87%
    09:00 +1°C° 1,3 mm 8 m/S 748 mmHg 87%
    10:00 +2°C° 1,3 mm 8 m/S 748 mmHg 88%
    11:00 +3°C° 2 mm 7 m/S 748 mmHg 88%
    12:00 +3°C° 2 mm 7 m/S 748 mmHg 89%
    13:00 +3°C° 2 mm 6 m/S 748 mmHg 90%
    14:00 +3°C° 0,8 mm 5 m/S 748 mmHg 90%
    15:00 +3°C° 0,8 mm 5 m/S 748 mmHg 90%
    16:00 +4°C° 0,8 mm 4 m/S 748 mmHg 91%
    17:00 +4°C° 0,1 mm 3 m/S 749 mmHg 91%
    18:00 +4°C° 0,1 mm 3 m/S 749 mmHg 91%
    19:00 +4°C° 0,1 mm 2 m/S 750 mmHg 91%
    20:00 +4°C° 0 mm 2 m/S 750 mmHg 91%
    21:00 +3°C° 0 mm 2 m/S 751 mmHg 90%
    22:00 +3°C° 0 mm 2 m/S 751 mmHg 90%
    23:00 +3°C° 0 mm 2 m/S 752 mmHg 91%

    19 Dezember, Dienstag

    Zeit Temperatur Niederschläge Wind Luftdruck Luftfeuchtigkeit
    00:00 +2°C° 0 mm 2 m/S 752 mmHg 91%
    01:00 +2°C° 0 mm 2 m/S 753 mmHg 92%
    02:00 +2°C° 0 mm 2 m/S 753 mmHg 92%
    03:00 +2°C° 0 mm 1 m/S 753 mmHg 93%
    04:00 +2°C° 0 mm 1 m/S 754 mmHg 93%
    05:00 +2°C° 0 mm 1 m/S 754 mmHg 93%
    06:00 +2°C° 0 mm 1 m/S 754 mmHg 93%
    07:00 +2°C° 0 mm 1 m/S 755 mmHg 93%
    08:00 +2°C° 0 mm 1 m/S 755 mmHg 92%
    09:00 +3°C° 0 mm 1 m/S 755 mmHg 91%
    10:00 +3°C° 0 mm 1 m/S 756 mmHg 91%
    11:00 +3°C° 0 mm 1 m/S 756 mmHg 88%
    12:00 +4°C° 0 mm 1 m/S 756 mmHg 86%
    13:00 +5°C° 0 mm 1 m/S 756 mmHg 83%
    14:00 +4°C° 0 mm 1 m/S 756 mmHg 85%
    15:00 +4°C° 0 mm 1 m/S 755 mmHg 87%
    16:00 +2°C° 0 mm 0 m/S 755 mmHg 88%
    17:00 +3°C° 0 mm 1 m/S 755 mmHg 89%
    18:00 +3°C° 0 mm 1 m/S 756 mmHg 90%
    19:00 +2°C° 0 mm 1 m/S 756 mmHg 91%
    20:00 +2°C° 0 mm 1 m/S 756 mmHg 91%
    21:00 +2°C° 0 mm 1 m/S 756 mmHg 91%
    22:00 +2°C° 0 mm 1 m/S 756 mmHg 92%
    23:00 +2°C° 0 mm 1 m/S 756 mmHg 92%
    Mehr zeigen